User: anonymous   Login
Location: Sunrise Point
(46.9200°N, 121.5900°W)
Time: 06:33:27
(UTC-07:00)
Language:

Cosmos 2058 - Orbit

View from above orbital plane
View from above orbital plane
View from above satellite
View from above satellite

Ground track
Ground track

The orbit data is extracted from the following two-line orbital elements,

1 20465U 90010A   17228.02124541  .00000254  00000-0  19363-4 0  9993
2 20465  82.4902 190.3272 0017297  92.8728 267.4474 14.97540190494292
Epoch (UTC): 16 August 2017 00:30:35
Eccentricity: 0.0017297
inclination: 82.4902°
perigee height: 562 km
apogee height: 586 km
right ascension of ascending node: 190.3272°
argument of perigee: 92.8728°
revolutions per day: 14.97540190
mean anomaly at epoch: 267.4474°
orbit number at epoch: 49429

The dashed part of the orbit path shows where the satellite is in the earth's shadow,  

DLR